Flag for Canada Weather past 2 weeks in Labrador City, Newfoundland and Labrador, Canada

Now
-11 °F

Light snow. Mostly cloudy.


Feels Like: -36 °F
Forecast: -26 / -9 °F
Wind: 18 mph from Northwest

Location: Wabush Lake

Current Time: Feb 1, 2015 at 11:35:38 AM

Latest Report: Feb 1, 2015 at 11:00 AM


Visibility: 1 mi

Pressure: 29.77 "Hg

Humidity: 70%

Dew point: -18 °F

Location of Labrador CityLocation

Historic Weather in Labrador City — Graph

°F

Labrador City temperature yesterday

Maximum temperature yesterday: -6 °F (at 12:03 AM)
Minimum temperature yesterday: -18 °F (at 8:00 AM)
Average temperature yesterday: -12 °F

Past Weeks' High & Low Weather Summary

 TemperatureHumidityPressure
High16 °F (Jan 30, 2:00 PM)92% (Jan 18, 9:00 PM)30.62 "Hg (Jan 18, 9:00 PM)
Low-45 °F (Jan 22, 7:00 AM)49% (Jan 28, 2:00 PM)29.03 "Hg (Jan 25, 9:00 AM)
Average-10 °F76%29.92 "Hg
* Reported Jan 17 10:00 AM — Feb 1 10:00 AM, Labrador City, Weather by CustomWeather, © 2014

Note: Actual official high and low records may vary slightly from our data, if they occured in-between our weather recording intervals... More about our weather records

Advertising

Labrador City weather history for previous 24 hours

 ConditionsComfort  
Time TempWeatherWind HumidityBarometerVisibility
10:00 AM
Feb 1
-11 °FLight snow. Mostly cloudy.14 mph70%29.78 "Hg3 mi
9:00 AM-11 °FLight snow. Mostly cloudy.13 mph70%29.78 "Hg6 mi
8:00 AM-11 °FLight snow. Overcast.14 mph70%29.78 "Hg4 mi
7:00 AM-9 °FLight snow. Overcast.16 mph70%29.76 "Hg5 mi
6:00 AM-9 °FLight snow. Overcast.15 mph77%29.77 "Hg6 mi
5:00 AM-9 °FLight snow. Mostly cloudy.9 mph77%29.80 "Hg9 mi
4:00 AM-9 °FLight snow. Mostly cloudy.9 mph77%29.80 "Hg6 mi
3:00 AM-9 °FLight snow. Mostly cloudy.13 mph77%29.82 "Hg9 mi
2:00 AM-9 °FOvercast.12 mph77%29.83 "Hg9 mi
1:00 AM-9 °FOvercast.10 mph77%29.86 "Hg9 mi
12:55 AM-9 °FOvercast.9 mph77%29.87 "Hg9 mi
12:00 AM-11 °FLight snow. Overcast.14 mph76%29.89 "Hg9 mi
11:00 PM
Jan 31
-11 °FLight snow. Overcast.9 mph70%29.93 "Hg9 mi
10:00 PM-13 °FLight snow. Overcast.10 mph76%29.96 "Hg15 mi
9:00 PM-13 °FOvercast.8 mph76%29.98 "Hg15 mi
8:00 PM-11 °FMostly cloudy.8 mph70%30.01 "Hg15 mi
7:00 PM-11 °FOvercast.9 mph70%30.02 "Hg15 mi
6:00 PM-11 °FOvercast.7 mph70%30.03 "Hg15 mi
5:00 PM-9 °FPartly sunny.7 mph70%30.03 "Hg15 mi
4:00 PM-9 °FBroken clouds.8 mph70%30.03 "Hg15 mi
3:00 PM-9 °FBroken clouds.8 mph70%30.04 "Hg15 mi
2:00 PM-9 °FBroken clouds.8 mph64%30.05 "Hg15 mi
1:00 PM-11 °FScattered clouds.8 mph63%30.07 "Hg15 mi
12:00 PM-15 °FPartly sunny.7 mph69%30.11 "Hg15 mi
11:00 AM-15 °FPassing clouds.5 mph69%30.13 "Hg15 mi
Weather by CustomWeather, © 2014

See weather overviewHow to use our weather pages